TimePDT,TemperatureF,Dew PointF,Humidity,Sea Level PressureIn,VisibilityMPH,Wind Direction,Wind SpeedMPH,Gust SpeedMPH,PrecipitationIn,Events,Conditions,WindDirDegrees,DateUTC
12:15 AM,44.6,44.6,100,30.00,10.0,Calm,Calm,-,N/A,,Clear,0,2013-03-27 07:15:00
12:35 AM,44.6,44.6,100,30.00,10.0,NNW,4.6,-,N/A,,Partly Cloudy,340,2013-03-27 07:35:00
12:55 AM,46.4,46.4,100,29.99,10.0,Calm,Calm,-,N/A,,Mostly Cloudy,0,2013-03-27 07:55:00
1:15 AM,44.6,44.6,100,29.99,10.0,NNW,3.5,-,N/A,,Overcast,330,2013-03-27 08:15:00
1:35 AM,44.6,44.6,100,29.98,10.0,Calm,Calm,-,N/A,,Scattered Clouds,0,2013-03-27 08:35:00
1:55 AM,44.6,44.6,100,29.98,10.0,Calm,Calm,-,N/A,,Mostly Cloudy,0,2013-03-27 08:55:00
2:15 AM,42.8,42.8,100,29.99,10.0,West,3.5,-,N/A,,Overcast,270,2013-03-27 09:15:00
2:35 AM,41.0,41.0,100,29.98,9.0,Calm,Calm,-,N/A,,Mostly Cloudy,0,2013-03-27 09:35:00
2:55 AM,42.8,42.8,100,29.98,10.0,Calm,Calm,-,N/A,,Overcast,0,2013-03-27 09:55:00
3:15 AM,44.6,44.6,100,29.97,10.0,Calm,Calm,-,N/A,,Overcast,0,2013-03-27 10:15:00
3:35 AM,44.6,44.6,100,29.97,10.0,WNW,3.5,-,N/A,,Overcast,290,2013-03-27 10:35:00
3:55 AM,46.4,46.4,100,29.97,10.0,West,3.5,-,N/A,,Overcast,260,2013-03-27 10:55:00
4:15 AM,46.4,46.4,100,29.97,10.0,Calm,Calm,-,N/A,,Overcast,0,2013-03-27 11:15:00
4:35 AM,46.4,46.4,100,29.97,10.0,Calm,Calm,-,N/A,,Overcast,0,2013-03-27 11:35:00
4:55 AM,46.4,46.4,100,29.97,10.0,Calm,Calm,-,N/A,,Overcast,0,2013-03-27 11:55:00
5:15 AM,46.4,46.4,100,29.97,10.0,Calm,Calm,-,N/A,,Overcast,0,2013-03-27 12:15:00
5:35 AM,46.4,46.4,100,29.97,10.0,Calm,Calm,-,N/A,,Overcast,0,2013-03-27 12:35:00
5:55 AM,44.6,44.6,100,29.97,10.0,Calm,Calm,-,N/A,,Overcast,0,2013-03-27 12:55:00
6:15 AM,46.4,46.4,100,29.97,10.0,Calm,Calm,-,N/A,,Overcast,0,2013-03-27 13:15:00
6:35 AM,46.4,46.4,100,29.97,10.0,Calm,Calm,-,N/A,,Overcast,0,2013-03-27 13:35:00
6:55 AM,46.4,46.4,100,29.97,10.0,Calm,Calm,-,N/A,,Overcast,0,2013-03-27 13:55:00
7:15 AM,46.4,46.4,100,29.98,10.0,Calm,Calm,-,N/A,,Overcast,0,2013-03-27 14:15:00
7:35 AM,48.2,48.2,100,29.98,10.0,Calm,Calm,-,N/A,,Overcast,0,2013-03-27 14:35:00
7:55 AM,48.2,48.2,100,29.99,4.0,Calm,Calm,-,N/A,,Overcast,0,2013-03-27 14:55:00
8:15 AM,48.2,48.2,100,29.99,10.0,Calm,Calm,-,N/A,,Overcast,0,2013-03-27 15:15:00
8:35 AM,48.2,48.2,100,29.99,10.0,South,3.5,-,N/A,,Overcast,190,2013-03-27 15:35:00
8:55 AM,50.0,48.2,94,29.99,10.0,Calm,Calm,-,N/A,,Overcast,0,2013-03-27 15:55:00
9:15 AM,50.0,48.2,94,29.99,10.0,Calm,Calm,-,N/A,,Overcast,0,2013-03-27 16:15:00
9:35 AM,51.8,48.2,88,30.00,10.0,Calm,Calm,-,N/A,,Overcast,0,2013-03-27 16:35:00
9:55 AM,53.6,48.2,82,30.00,10.0,Calm,Calm,-,N/A,,Overcast,0,2013-03-27 16:55:00
10:15 AM,53.6,50.0,88,30.00,10.0,Calm,Calm,-,N/A,,Overcast,0,2013-03-27 17:15:00
10:35 AM,55.4,50.0,82,30.01,10.0,Calm,Calm,-,N/A,,Overcast,0,2013-03-27 17:35:00
10:55 AM,55.4,50.0,82,30.00,10.0,Calm,Calm,-,N/A,,Overcast,0,2013-03-27 17:55:00
11:15 AM,57.2,51.8,82,30.00,10.0,West,3.5,-,N/A,,Mostly Cloudy,280,2013-03-27 18:15:00
11:35 AM,57.2,50.0,77,30.00,10.0,WNW,4.6,-,N/A,,Mostly Cloudy,290,2013-03-27 18:35:00
11:55 AM,57.2,50.0,77,30.00,10.0,WSW,6.9,-,N/A,,Overcast,250,2013-03-27 18:55:00
12:15 PM,57.2,53.6,88,30.01,5.0,Calm,Calm,-,N/A,,Overcast,0,2013-03-27 19:15:00
12:35 PM,57.2,53.6,88,30.01,7.0,Calm,Calm,-,N/A,,Overcast,0,2013-03-27 19:35:00
12:55 PM,57.2,53.6,88,30.01,10.0,NW,3.5,-,N/A,,Overcast,320,2013-03-27 19:55:00
1:15 PM,57.2,53.6,88,30.00,10.0,Calm,Calm,-,N/A,,Overcast,0,2013-03-27 20:15:00
1:35 PM,59.0,50.0,72,30.00,10.0,SW,9.2,-,N/A,,Overcast,230,2013-03-27 20:35:00
1:55 PM,59.0,50.0,72,30.00,10.0,WSW,9.2,-,N/A,,Overcast,240,2013-03-27 20:55:00
2:15 PM,59.0,50.0,72,30.00,10.0,WSW,5.8,-,N/A,,Overcast,250,2013-03-27 21:15:00
2:35 PM,59.0,50.0,72,30.00,10.0,SW,9.2,-,N/A,,Overcast,230,2013-03-27 21:35:00
2:55 PM,59.0,50.0,72,29.99,10.0,West,8.1,-,N/A,,Overcast,260,2013-03-27 21:55:00
3:15 PM,59.0,50.0,72,29.99,10.0,SW,9.2,-,N/A,,Overcast,230,2013-03-27 22:15:00
3:35 PM,59.0,50.0,72,29.99,10.0,West,6.9,-,N/A,,Overcast,260,2013-03-27 22:35:00
3:55 PM,59.0,48.2,67,29.99,10.0,SSW,6.9,-,N/A,,Overcast,200,2013-03-27 22:55:00
4:15 PM,60.8,50.0,68,29.99,10.0,WSW,10.4,-,N/A,,Overcast,240,2013-03-27 23:15:00
4:35 PM,60.8,50.0,68,29.99,10.0,WSW,11.5,-,N/A,,Overcast,240,2013-03-27 23:35:00
4:55 PM,59.0,50.0,72,29.99,10.0,SW,10.4,-,N/A,,Overcast,230,2013-03-27 23:55:00
5:15 PM,59.0,50.0,72,29.99,10.0,WSW,8.1,-,N/A,,Overcast,250,2013-03-28 00:15:00
5:35 PM,59.0,48.2,67,29.99,10.0,WSW,9.2,-,N/A,,Scattered Clouds,250,2013-03-28 00:35:00
5:55 PM,57.2,50.0,77,29.99,10.0,West,8.1,-,N/A,,Scattered Clouds,270,2013-03-28 00:55:00
6:15 PM,57.2,50.0,77,29.99,10.0,WSW,6.9,-,N/A,,Mostly Cloudy,250,2013-03-28 01:15:00
6:35 PM,57.2,48.2,72,30.00,10.0,West,10.4,-,N/A,,Scattered Clouds,260,2013-03-28 01:35:00
6:55 PM,55.4,48.2,77,30.00,10.0,West,6.9,-,N/A,,Partly Cloudy,270,2013-03-28 01:55:00
7:15 PM,53.6,50.0,88,30.00,10.0,WNW,8.1,-,N/A,,Clear,290,2013-03-28 02:15:00
7:35 PM,53.6,48.2,82,30.00,10.0,NW,4.6,-,N/A,,Clear,310,2013-03-28 02:35:00
7:55 PM,50.0,50.0,100,30.01,10.0,NNW,4.6,-,N/A,,Scattered Clouds,330,2013-03-28 02:55:00
8:15 PM,50.0,48.2,94,30.01,10.0,North,4.6,-,N/A,,Overcast,350,2013-03-28 03:15:00
8:35 PM,50.0,48.2,94,30.01,10.0,NNW,5.8,-,N/A,,Overcast,340,2013-03-28 03:35:00
8:55 PM,48.2,48.2,100,30.02,10.0,North,3.5,-,N/A,,Overcast,350,2013-03-28 03:55:00
9:15 PM,48.2,48.2,100,30.02,10.0,WNW,4.6,-,N/A,,Overcast,300,2013-03-28 04:15:00
9:35 PM,48.2,48.2,100,30.03,10.0,WNW,4.6,-,N/A,,Overcast,300,2013-03-28 04:35:00
9:55 PM,48.2,48.2,100,30.03,10.0,WNW,3.5,-,N/A,,Overcast,300,2013-03-28 04:55:00
10:15 PM,48.2,48.2,100,30.04,10.0,Calm,Calm,-,N/A,,Scattered Clouds,0,2013-03-28 05:15:00
10:35 PM,48.2,48.2,100,30.04,10.0,NNW,3.5,-,N/A,,Mostly Cloudy,340,2013-03-28 05:35:00
10:55 PM,48.2,48.2,100,30.04,10.0,North,3.5,-,N/A,,Overcast,10,2013-03-28 05:55:00
11:15 PM,48.2,48.2,100,30.04,10.0,Calm,Calm,-,N/A,,Overcast,0,2013-03-28 06:15:00
11:35 PM,48.2,48.2,100,30.04,10.0,NNE,3.5,-,N/A,,Overcast,20,2013-03-28 06:35:00
11:55 PM,48.2,48.2,100,30.04,10.0,Calm,Calm,-,N/A,,Overcast,0,2013-03-28 06:55:00